TimeEDT,TemperatureF,Dew PointF,Humidity,Sea Level PressureIn,VisibilityMPH,Wind Direction,Wind SpeedMPH,Gust SpeedMPH,PrecipitationIn,Events,Conditions,WindDirDegrees,DateUTC
12:52 AM,35.1,30.0,82,29.73,10.0,Variable,5.8,-,N/A,,Clear,0,2013-05-13 04:52:00
1:52 AM,41.0,27.0,57,29.73,10.0,SW,6.9,18.4,N/A,,Clear,230,2013-05-13 05:52:00
2:52 AM,39.9,27.0,60,29.73,10.0,Variable,5.8,-,N/A,,Clear,0,2013-05-13 06:52:00
3:52 AM,42.1,25.0,51,29.73,10.0,WSW,8.1,-,N/A,,Overcast,240,2013-05-13 07:52:00
4:52 AM,41.0,23.0,49,29.75,10.0,West,10.4,19.6,N/A,,Scattered Clouds,260,2013-05-13 08:52:00
5:52 AM,39.9,25.0,55,29.76,10.0,WSW,8.1,-,N/A,,Overcast,240,2013-05-13 09:52:00
6:52 AM,39.9,24.1,53,29.78,10.0,West,8.1,26.5,N/A,,Clear,260,2013-05-13 10:52:00
7:52 AM,42.1,23.0,47,29.81,10.0,Variable,5.8,19.6,N/A,,Clear,0,2013-05-13 11:52:00
8:52 AM,41.0,21.9,47,29.84,10.0,SW,10.4,27.6,N/A,,Scattered Clouds,230,2013-05-13 12:52:00
9:52 AM,43.0,23.0,45,29.85,10.0,Calm,Calm,-,N/A,,Overcast,0,2013-05-13 13:52:00
10:52 AM,44.1,24.1,45,29.86,10.0,SW,6.9,-,N/A,,Overcast,230,2013-05-13 14:52:00
11:52 AM,45.0,25.0,46,29.89,10.0,SW,10.4,20.7,N/A,,Overcast,220,2013-05-13 15:52:00
12:52 PM,46.9,26.1,44,29.89,10.0,SW,11.5,17.3,N/A,,Overcast,230,2013-05-13 16:52:00
1:52 PM,48.0,27.0,44,29.90,10.0,WSW,11.5,20.7,0.00,Rain,Light Rain,240,2013-05-13 17:52:00
2:52 PM,51.1,28.0,41,29.91,10.0,Calm,Calm,-,0.00,,Overcast,0,2013-05-13 18:52:00
4:52 PM,48.0,30.0,50,29.92,10.0,Variable,5.8,-,N/A,,Mostly Cloudy,0,2013-05-13 20:52:00
5:52 PM,48.9,28.9,46,29.93,10.0,Variable,3.5,-,N/A,,Mostly Cloudy,0,2013-05-13 21:52:00
6:52 PM,46.9,27.0,46,29.94,10.0,NW,5.8,-,N/A,,Mostly Cloudy,310,2013-05-13 22:52:00
8:52 PM,43.0,27.0,53,29.98,10.0,Calm,Calm,-,N/A,,Overcast,0,2013-05-14 00:52:00
9:52 PM,42.1,27.0,55,30.01,10.0,Calm,Calm,-,N/A,,Scattered Clouds,0,2013-05-14 01:52:00
10:52 PM,33.1,28.9,85,30.04,10.0,Calm,Calm,-,N/A,,Mostly Cloudy,0,2013-05-14 02:52:00
11:52 PM,37.0,30.9,79,30.04,10.0,Calm,Calm,-,N/A,,Overcast,0,2013-05-14 03:52:00